• In Moldova, Republic
  • List of Countries
  • For 7 days
  • Water Temperature
  • Satellite Maps
  • Weather Map
  • Weather Widgets
  • user-avatar
    Login

    Hourly Weather Lezhe

    Today, 27 June, Tuesday

    Time Temperature Precipitation Wind Pressure Humidity
    00:00 +21°C° 0 mm 1 mps 735 mmHg 85%
    01:00 +21°C° 0 mm 1 mps 735 mmHg 85%
    02:00 +20°C° 0 mm 1 mps 735 mmHg 85%
    03:00 +20°C° 0 mm 1 mps 735 mmHg 86%
    04:00 +20°C° 0 mm 1 mps 735 mmHg 86%
    05:00 +23°C° 0 mm 1 mps 735 mmHg 78%
    06:00 +25°C° 0 mm 1 mps 735 mmHg 71%
    07:00 +28°C° 0 mm 1 mps 736 mmHg 63%
    08:00 +29°C° 0 mm 1 mps 736 mmHg 56%
    09:00 +31°C° 0 mm 1 mps 736 mmHg 49%
    10:00 +33°C° 0 mm 1 mps 736 mmHg 41%
    11:00 +34°C° 0 mm 2 mps 735 mmHg 39%
    12:00 +35°C° 0 mm 2 mps 735 mmHg 37%
    13:00 +35°C° 0 mm 2 mps 735 mmHg 35%
    14:00 +35°C° 0 mm 2 mps 735 mmHg 36%
    15:00 +34°C° 0 mm 2 mps 735 mmHg 37%
    16:00 +34°C° 0 mm 2 mps 734 mmHg 38%
    17:00 +30°C° 0 mm 2 mps 734 mmHg 50%
    18:00 +27°C° 0 mm 1 mps 734 mmHg 61%
    19:00 +24°C° 0 mm 1 mps 734 mmHg 73%
    20:00 +24°C° 0 mm 1 mps 734 mmHg 74%
    21:00 +23°C° 0 mm 1 mps 734 mmHg 75%
    22:00 +22°C° 0 mm 1 mps 734 mmHg 76%
    23:00 +20°C° 0.1 mm 2 mps 734 mmHg 75%

    Tomorrow, 28 June, Wednesday

    Time Temperature Precipitation Wind Pressure Humidity
    00:00 +20°C° 0.1 mm 2 mps 734 mmHg 74%
    01:00 +20°C° 0.1 mm 2 mps 734 mmHg 72%
    02:00 +20°C° 0 mm 2 mps 734 mmHg 73%
    03:00 +20°C° 0 mm 2 mps 734 mmHg 73%
    04:00 +20°C° 0 mm 2 mps 734 mmHg 73%
    05:00 +24°C° 0 mm 2 mps 734 mmHg 66%
    06:00 +26°C° 0 mm 2 mps 734 mmHg 59%
    07:00 +29°C° 0 mm 2 mps 734 mmHg 51%
    08:00 +30°C° 0 mm 2 mps 734 mmHg 47%
    09:00 +31°C° 0 mm 3 mps 734 mmHg 43%
    10:00 +33°C° 0 mm 3 mps 735 mmHg 39%
    11:00 +34°C° 0 mm 3 mps 734 mmHg 39%
    12:00 +34°C° 0 mm 3 mps 734 mmHg 39%
    13:00 +35°C° 0 mm 4 mps 734 mmHg 39%
    14:00 +34°C° 0 mm 3 mps 734 mmHg 40%
    15:00 +34°C° 0 mm 3 mps 733 mmHg 42%
    16:00 +33°C° 0 mm 3 mps 733 mmHg 44%
    17:00 +30°C° 0 mm 2 mps 733 mmHg 54%
    18:00 +28°C° 0 mm 2 mps 733 mmHg 64%
    19:00 +26°C° 0 mm 2 mps 733 mmHg 73%
    20:00 +25°C° 0 mm 2 mps 734 mmHg 73%
    21:00 +24°C° 0 mm 2 mps 734 mmHg 73%
    22:00 +24°C° 0 mm 2 mps 734 mmHg 72%
    23:00 +23°C° 0 mm 2 mps 734 mmHg 71%

    Day after tomorrow, 29 June, Thursday

    Time Temperature Precipitation Wind Pressure Humidity
    00:00 +23°C° 0 mm 2 mps 734 mmHg 69%
    01:00 +23°C° 0 mm 2 mps 734 mmHg 67%
    02:00 +23°C° 0 mm 2 mps 734 mmHg 67%
    03:00 +21°C° 0 mm 2 mps 734 mmHg 67%
    04:00 +21°C° 0 mm 2 mps 734 mmHg 66%
    05:00 +25°C° 0.1 mm 2 mps 734 mmHg 59%
    06:00 +27°C° 0.1 mm 3 mps 734 mmHg 53%
    07:00 +30°C° 0.1 mm 3 mps 734 mmHg 46%
    08:00 +33°C° 0 mm 4 mps 734 mmHg 41%
    09:00 +34°C° 0 mm 5 mps 734 mmHg 36%
    10:00 +36°C° 0 mm 7 mps 734 mmHg 31%
    11:00 +36°C° 0 mm 7 mps 734 mmHg 33%
    12:00 +36°C° 0 mm 6 mps 734 mmHg 35%
    13:00 +36°C° 0 mm 6 mps 733 mmHg 37%
    14:00 +35°C° 0 mm 6 mps 733 mmHg 39%
    15:00 +35°C° 0 mm 5 mps 733 mmHg 41%
    16:00 +34°C° 0 mm 4 mps 733 mmHg 42%
    17:00 +32°C° 0 mm 4 mps 734 mmHg 52%
    18:00 +29°C° 0 mm 3 mps 734 mmHg 62%
    19:00 +27°C° 0 mm 3 mps 734 mmHg 71%
    20:00 +25°C° 0 mm 3 mps 734 mmHg 73%
    21:00 +24°C° 0 mm 3 mps 735 mmHg 74%
    22:00 +23°C° 0 mm 2 mps 735 mmHg 75%
    23:00 +23°C° 0 mm 2 mps 735 mmHg 74%

    30 June, Friday

    Time Temperature Precipitation Wind Pressure Humidity
    00:00 +23°C° 0 mm 2 mps 735 mmHg 74%
    01:00 +21°C° 0 mm 2 mps 735 mmHg 73%
    02:00 +21°C° 0 mm 2 mps 736 mmHg 75%
    03:00 +21°C° 0 mm 2 mps 736 mmHg 77%
    04:00 +21°C° 0 mm 1 mps 736 mmHg 79%
    05:00 +24°C° 0 mm 1 mps 736 mmHg 70%
    06:00 +26°C° 0 mm 1 mps 737 mmHg 62%
    07:00 +29°C° 0 mm 1 mps 737 mmHg 54%
    08:00 +31°C° 0 mm 1 mps 737 mmHg 46%
    09:00 +34°C° 0 mm 2 mps 737 mmHg 39%
    10:00 +36°C° 0 mm 2 mps 737 mmHg 32%
    11:00 +37°C° 0 mm 2 mps 737 mmHg 29%
    12:00 +38°C° 0 mm 2 mps 737 mmHg 27%
    13:00 +39°C° 0 mm 2 mps 737 mmHg 24%
    14:00 +38°C° 0 mm 2 mps 736 mmHg 25%
    15:00 +38°C° 0 mm 2 mps 736 mmHg 26%
    16:00 +38°C° 0 mm 2 mps 736 mmHg 27%
    17:00 +34°C° 0 mm 2 mps 736 mmHg 38%
    18:00 +30°C° 0 mm 1 mps 735 mmHg 49%
    19:00 +27°C° 0 mm 1 mps 735 mmHg 59%
    20:00 +26°C° 0 mm 1 mps 735 mmHg 60%
    21:00 +25°C° 0 mm 1 mps 736 mmHg 61%
    22:00 +25°C° 0 mm 2 mps 736 mmHg 62%
    23:00 +24°C° 0 mm 1 mps 735 mmHg 62%

    1 July, Saturday

    Time Temperature Precipitation Wind Pressure Humidity
    00:00 +24°C° 0 mm 1 mps 735 mmHg 62%
    01:00 +24°C° 0 mm 1 mps 735 mmHg 62%
    02:00 +24°C° 0 mm 2 mps 735 mmHg 61%
    03:00 +24°C° 0 mm 2 mps 734 mmHg 61%
    04:00 +24°C° 0 mm 2 mps 734 mmHg 60%
    05:00 +27°C° 0 mm 2 mps 735 mmHg 54%
    06:00 +29°C° 0 mm 2 mps 735 mmHg 47%
    07:00 +32°C° 0 mm 2 mps 735 mmHg 41%
    08:00 +35°C° 0 mm 2 mps 735 mmHg 36%
    09:00 +36°C° 0 mm 2 mps 735 mmHg 31%
    10:00 +38°C° 0 mm 3 mps 735 mmHg 26%
    11:00 +38°C° 0 mm 3 mps 735 mmHg 25%
    12:00 +39°C° 0 mm 3 mps 735 mmHg 24%
    13:00 +39°C° 0 mm 3 mps 734 mmHg 24%
    14:00 +39°C° 0 mm 3 mps 734 mmHg 26%
    15:00 +38°C° 0 mm 3 mps 734 mmHg 29%
    16:00 +37°C° 0 mm 3 mps 734 mmHg 31%
    17:00 +34°C° 0 mm 2 mps 734 mmHg 45%
    18:00 +30°C° 0 mm 2 mps 734 mmHg 58%
    19:00 +27°C° 0 mm 1 mps 734 mmHg 72%
    20:00 +26°C° 0 mm 1 mps 734 mmHg 76%
    21:00 +25°C° 0 mm 1 mps 734 mmHg 80%
    22:00 +24°C° 0 mm 1 mps 734 mmHg 85%
    23:00 +23°C° 0.1 mm 1 mps 734 mmHg 85%

    2 July, Sunday

    Time Temperature Precipitation Wind Pressure Humidity
    00:00 +23°C° 0.1 mm 1 mps 733 mmHg 85%
    01:00 +23°C° 0.1 mm 1 mps 733 mmHg 85%
    02:00 +22°C° 0 mm 1 mps 733 mmHg 86%
    03:00 +22°C° 0 mm 1 mps 733 mmHg 87%
    04:00 +22°C° 0 mm 1 mps 733 mmHg 87%
    05:00 +24°C° 0 mm 1 mps 733 mmHg 78%
    06:00 +27°C° 0 mm 1 mps 733 mmHg 70%
    07:00 +29°C° 0 mm 1 mps 733 mmHg 61%
    08:00 +30°C° 0.1 mm 2 mps 733 mmHg 56%
    09:00 +31°C° 0.1 mm 3 mps 732 mmHg 51%
    10:00 +33°C° 0.1 mm 4 mps 732 mmHg 46%
    11:00 +33°C° 0.4 mm 4 mps 732 mmHg 44%
    12:00 +33°C° 0.4 mm 5 mps 732 mmHg 43%
    13:00 +33°C° 0.4 mm 5 mps 732 mmHg 41%
    14:00 +32°C° 0.2 mm 5 mps 732 mmHg 40%
    15:00 +32°C° 0.2 mm 5 mps 732 mmHg 39%
    16:00 +30°C° 0.2 mm 5 mps 731 mmHg 38%
    17:00 +27°C° 0 mm 4 mps 732 mmHg 49%
    18:00 +25°C° 0 mm 3 mps 732 mmHg 61%
    19:00 +21°C° 0 mm 3 mps 732 mmHg 72%
    20:00 +20°C° 0.1 mm 3 mps 732 mmHg 75%
    21:00 +19°C° 0.1 mm 2 mps 732 mmHg 79%
    22:00 +19°C° 0.1 mm 2 mps 732 mmHg 82%
    23:00 +18°C° 0.3 mm 2 mps 732 mmHg 82%
    Show more